sat.trackr.live / text

‹ back to catalog

STARLINK-31199

NORAD 58861 · 2024-019J

PAYLOAD ACTIVE UNKNOWN

§ Identity

Operator
Country
US
Launch date
2024-01-29
Launch site
AFETR
Launch vehicle
Mass (kg)
RCS (m²)

Purposes: comms

External: N2YO · Heavens-Above · Gunter

§ Orbital elements

Epoch: 2026-09-20T22:24:57.494592Z

Period
94.27 min
Inclination
43.0016°
Eccentricity
0.0000932
Mean motion
15.27590953 rev/d
Perigee alt
482.4 km
Apogee alt
483.7 km
Semi-major
6,861.2 km
B*
5.7810e-5
RAAN
226.1853°
Arg perigee
262.6570°
Mean anomaly
97.4176°
Rev number
14,894

§ Raw data

STARLINK-311991 58861U 24019J   26263.93399878  .00001330  00000+0  57810-4 0  99902 58861  43.0016 226.1853 0000932 262.6570  97.4176 15.27590953148949

JSON: /api/v1/satellites/58861 · /tle

For live sub-satellite position, see the globe view (requires WebGL).

§ Visibility from observer

Set your observer location to see the next 7 days of passes ≥ 10°. The values pass through the URL so the page stays shareable.

No JS? Fill the form by hand. The geolocation button needs JavaScript.